Weather History for KCEC - October, 2012

Change the Weather History Date:

Friday, October 12, 2012

  Actual Average Record
Temperature  
Mean Temperature 56 °F 54 °F  
Max Temperature 61 °F 61 °F 80 °F (1976)
Min Temperature 51 °F 47 °F 38 °F (2013)
Degree Days  
Heating Degree Days 10 11  
Month to date heating degree days 132  
Since 1 July heating degree days 936  
Cooling Degree Days 0 0  
Month to date cooling degree days 0  
Year to date cooling degree days 0  
Growing Degree Days 6 (Base 50)    
Moisture  
Dew Point 49 °F    
Average Humidity 77    
Maximum Humidity 89    
Minimum Humidity 64    
Precipitation  
Precipitation 0.00 in 0.11 in 1.22 in (1962)
Month to date precipitation 0.22 0.96  
Year to date precipitation 44.37 39.75  
Since 1 July precipitation 0.99 2.82  
Snow  
Snow 0.00 in - - ()
Month to date snowfall 0.0  
Since 1 July snowfall 0.0  
Since 1 September snowfall 0.0  
Snow Depth -    
Sea Level Pressure  
Sea Level Pressure 30.08 in    
Wind  
Wind Speed 8 mph (SSE)    
Max Wind Speed 16 mph    
Max Gust Speed 22 mph    
Visibility 8 miles    
Events Rain    
T = Trace of Precipitation, MM = Missing Value Source: NWS Daily Summary

Daily Weather History Graph

Daily Weather History Graph

Search for Another Location

Airport or City:

Trip Planner

Search our weather history database for the weather conditions in past years. The results will help you decide how hot, cold, wet, or windy it might be!

Date:

Astronomy

Oct. 12, 2012 Rise Set
Actual Time 7:26 AM PDT 6:39 PM PDT
Civil Twilight 6:58 AM PDT 7:07 PM PDT
Nautical Twilight 6:26 AM PDT 7:39 PM PDT
Astronomical Twilight 5:54 AM PDT 8:11 PM PDT
Moon 4:13 AM PDT (10/12) 4:54 PM PDT (10/12)
Length of Visible Light 12h 08m
Length of Day
11h 12m
Waning Crescent, 10% of the Moon is Illuminated
Oct 12
Waning Crescent
Oct 15
New
Oct 21
First Quarter
Oct 29
Full
Nov 6
Last Quarter

Hourly Weather History & Observations

Time (PDT) Temp. Dew Point Humidity Pressure Visibility Wind Dir Wind Speed Gust Speed Precip Events Conditions
1:56 AM 51.1 °F 46.9 °F 86% 29.97 in 10.0 mi Calm Calm - N/A   Overcast
2:56 AM 51.1 °F 46.9 °F 86% 29.98 in 10.0 mi Calm Calm - N/A   Overcast
3:56 AM 51.1 °F 48.0 °F 89% 29.99 in 10.0 mi Calm Calm - N/A   Overcast
4:56 AM 51.1 °F 46.9 °F 86% 29.99 in 10.0 mi ESE 4.6 mph - N/A   Overcast
5:56 AM 51.1 °F 46.9 °F 86% 30.00 in 10.0 mi SE 9.2 mph - N/A   Overcast
6:56 AM 51.1 °F 46.0 °F 83% 30.01 in 10.0 mi SE 8.1 mph - N/A   Overcast
7:27 AM 51.8 °F 46.4 °F 82% 30.02 in 10.0 mi SE 5.8 mph - N/A   Overcast
7:56 AM 52.0 °F 46.9 °F 83% 30.03 in 10.0 mi SE 4.6 mph - N/A   Overcast
8:56 AM 53.1 °F 46.9 °F 80% 30.05 in 10.0 mi SE 8.1 mph - N/A   Overcast
9:56 AM 53.1 °F 46.9 °F 80% 30.08 in 10.0 mi SSE 10.4 mph - N/A   Overcast
10:56 AM 55.0 °F 48.0 °F 77% 30.10 in 10.0 mi SSE 12.7 mph - N/A   Overcast
1:56 PM 57.0 °F 48.9 °F 74% 30.11 in 10.0 mi SSE 10.4 mph - N/A   Overcast
2:56 PM 57.9 °F 48.9 °F 72% 30.11 in 10.0 mi SSE 11.5 mph - N/A   Overcast
4:56 PM 60.1 °F 48.9 °F 67% 30.13 in 10.0 mi SSE 10.4 mph - N/A   Clear
6:56 PM 55.0 °F 50.0 °F 83% 30.13 in 10.0 mi South 11.5 mph - 0.00 in   Overcast
7:30 PM 55.4 °F 51.8 °F 88% 30.14 in 10.0 mi SSE 6.9 mph - N/A   Overcast
7:56 PM 54.0 °F 52.0 °F 93% 30.15 in 3.0 mi SSE 6.9 mph - 0.00 in Rain Light Rain
8:13 PM 53.6 °F 51.8 °F 94% 30.15 in 3.0 mi SSE 6.9 mph - 0.02 in Rain Light Rain
8:18 PM 53.6 °F 51.8 °F 94% 30.15 in 2.5 mi SSE 6.9 mph - 0.03 in Rain Light Rain
8:29 PM 53.6 °F 51.8 °F 94% 30.16 in 3.0 mi SSE 5.8 mph - 0.03 in Rain Light Rain
9:56 PM 54.0 °F 53.1 °F 97% 30.18 in 6.0 mi SE 8.1 mph - 0.00 in Rain Light Rain
10:13 PM 53.6 °F 53.6 °F 100% 30.17 in 8.0 mi SSE 8.1 mph - 0.00 in   Overcast